sat.trackr.live / text

‹ back to catalog

STARLINK-35690

NORAD 66383 · 2025-257D

PAYLOAD ACTIVE UNKNOWN

§ Identity

Operator
Country
US
Launch date
2025-11-09
Launch site
AFETR
Launch vehicle
Mass (kg)
RCS (m²)

Purposes: comms

External: N2YO · Heavens-Above · Gunter

§ Orbital elements

Epoch: 2026-09-20T11:49:27.469920Z

Period
93.85 min
Inclination
53.1675°
Eccentricity
0.0000674
Mean motion
15.34407447 rev/d
Perigee alt
462.2 km
Apogee alt
463.1 km
Semi-major
6,840.8 km
B*
5.0590e-4
RAAN
27.5875°
Arg perigee
62.1781°
Mean anomaly
297.9290°
Rev number
4,962

§ Raw data

STARLINK-356901 66383U 25257D   26263.49267905  .00016759  00000+0  50590-3 0  99972 66383  53.1675  27.5875 0000674  62.1781 297.9290 15.34407447 49629

JSON: /api/v1/satellites/66383 · /tle

For live sub-satellite position, see the globe view (requires WebGL).

§ Visibility from observer

Set your observer location to see the next 7 days of passes ≥ 10°. The values pass through the URL so the page stays shareable.

No JS? Fill the form by hand. The geolocation button needs JavaScript.